OPS 5798 DEB, 903

Orbit data source: Space-Track

OPS 5798 DEB, 903 is space debris in LEO originally from a launch on Tue, 06 Oct 1964 UTC launched from the Air Force Western Test Range (AFWTR). Debris objects in space refer to the collection of defunct objects orbiting the Earth. Examples of debris include non-operational satellites, rocket bodies, and fragments generated from explosions, collisions, or faulty payload assembly.

Loading next visibility...
Identifier
903, 1964-063F
Orbit
LEO
Last TLE update
1 day ago
Origin
Manufacturer
Unknown
Mission
Spacecraft
Bus & Motor
Unknown
Mass
Unknown
Launch date (UTC)
1964-10-06 (61 years ago)
Launch vehicle
Unknown
Launch site
Air Force Western Test Range (AFWTR)
Object type
Payload
Rocket body
Debris
Shape & HBR
Unknown
Radar Cross Section
Small (<0.1 m²)

Expand to show TLE details & history

TLE from 1 day ago
0 OPS 5798 DEB
1 00903U 64063F   25188.14058416  .00000574  00000-0  54135-3 0  9991
2 00903  90.2173  63.0345 0025210  76.6917  76.3682 13.80108602 26765
Epoch: 2025-07-07T03:22Z
TLE epoch observation values (Epoch: 2025-07-07T03:22:26.471Z)
Latitude
26.69312°
Longitude
-92.8213°
Altitude
962.526 km
Speed
7.375 km/s
True Right ascension
16h 12m 34s
True Declination
26° 33' 33"
Sunlit
Object was in daylight at epoch
Visualization orbit readout
Latitude
71.2862°
Longitude
-92.2653°
Altitude
960.828 km
Speed
7.385 km/s
Apparent Right ascension
08h 52m 49s
Apparent Declination
38° 52' 35"
Sunlit
Object is in daylight
Visualization observer readout
Local Sidereal Time
19:05:29
Azimuth
339.24° N
Elevation
-7.473°
Doppler factor
1
Orbital elements
Apogee altitude
979.008 km
Perigee altitude
942.007 km
Semi-major axis
7,338.645 km
Eccentricity
0.00252
Inclination
90.2173°
RAAN
63.0345°
Arg. of periapsis
76.6917°
True anomaly
Unknown
Mean anomaly
76.3682°
Eccentric anomaly
Unknown
Mean motion
3.45239 °/min
Orbital period
104.28 mins
BSTAR
0.00054135
Loading maneuver chart data...
Loading SW <> Apogee altitude chart data...
Loading historical data...
Loading historical data...
Loading historical data...
Loading historical data...
Loading historical data...
Loading historical data...
Loading historical data...

OPS 5798 DEB Visibility forecast

Observer location: undefined°, undefined°

Span
Click to sort rows by Start time (UTC) header in descending order
Start Az.
Max El. time (UTC)
Max El. Az.
Max El.
End time (UTC)
End Az.
10 mins2025-07-08 15:17:00.429Z146.601° SSE2025-07-08 15:22:00.429Z89.948° E32.621°2025-07-08 15:27:00.429Z16.704° NNE
8 mins2025-07-08 17:03:00.429Z228.947° WSW2025-07-08 17:07:00.429Z282.675° WNW24.764°2025-07-08 17:11:00.429Z329.777° NNW
10 mins2025-07-09 03:57:00.429Z3.626° NNE2025-07-09 04:02:00.429Z133.396° SE44.921°2025-07-09 04:07:00.429Z182.501° SSW
|